Wind_Speed
53 51 52 50 51 52 53 54 55 55 55 56 55 56 55 55 54 53 51 49 49 47 47 46 46 46 46 46 45 46 49 42 33 31 27 33 32 30 25 23 19 16 14 13 13
52 53 53 53 52 53 53 54 56 57 57 58 60 58 57 57 57 57 55 54 53 52 51 51 50 50 49 49 49 48 48 44 37 35 36 37 39 37 32 28 23 20 19 16 16
54 54 52 54 54 54 54 55 56 58 60 61 61 62 60 59 60 58 59 58 57 56 55 55 54 53 53 52 51 50 49 43 40 41 43 44 43 42 38 32 28 26 24 19 18
55 55 55 56 55 55 55 56 57 59 62 63 64 63 63 61 62 61 61 61 60 59 59 59 58 58 56 55 54 54 51 46 44 44 46 49 48 46 44 37 33 32 28 24 23
57 57 56 56 56 57 58 59 59 59 60 61 63 63 64 62 60 65 64 63 62 62 62 62 62 62 60 59 58 57 55 52 50 49 49 51 52 51 47 44 38 35 33 30 28
61 59 57 58 59 60 61 62 63 63 62 62 63 63 63 63 57 60 61 61 64 63 65 64 64 64 64 63 62 61 59 56 54 53 52 53 52 53 49 47 44 39 37 35 33
59 59 59 60 60 61 64 65 67 68 68 67 67 66 65 62 62 60 60 59 60 59 62 66 66 65 66 66 66 65 64 61 58 56 56 56 54 52 49 49 46 45 41 38 37
59 59 60 61 62 64 64 67 69 72 72 73 73 72 68 64 64 64 62 61 59 58 59 60 64 67 67 67 68 67 68 66 64 62 59 59 53 53 53 51 49 47 45 42 41
64 65 65 66 66 67 67 67 69 70 72 74 76 78 72 71 66 69 68 65 63 60 60 60 60 62 66 68 69 69 70 70 68 65 64 63 57 55 56 52 52 51 48 47 45
69 69 69 70 70 71 72 73 73 74 74 74 76 75 73 73 73 72 73 73 69 67 64 63 63 63 61 65 71 71 69 67 67 64 64 65 62 61 57 56 56 55 54 52 50
70 71 71 72 71 72 73 74 76 79 80 77 77 75 73 73 75 75 77 77 75 73 70 69 69 65 59 60 60 63 67 68 67 66 66 66 68 67 63 60 59 58 58 56 53
70 71 71 72 71 72 73 73 74 76 78 77 77 78 74 75 75 75 78 77 77 75 74 74 70 59 65 64 63 63 61 61 64 68 69 66 68 68 66 63 61 60 59 57 55
69 68 68 69 70 70 70 69 71 73 78 80 76 75 72 74 76 73 75 76 75 77 77 76 71 70 69 69 67 64 63 59 61 63 66 67 71 69 66 65 63 62 61 60 58
66 66 68 69 70 69 70 69 70 71 77 78 78 74 72 73 78 70 73 74 77 76 76 77 73 75 74 71 71 70 64 66 65 65 66 63 67 67 69 67 64 63 64 62 60
66 66 67 68 68 68 69 69 69 68 73 78 78 76 73 77 69 69 67 73 74 72 73 74 71 71 75 69 71 69 69 68 69 69 69 65 66 65 63 67 65 62 60 61 61
63 64 65 66 66 67 68 69 70 67 77 74 76 74 76 76 71 70 74 75 76 76 77 72 72 69 68 69 67 66 69 70 71 72 76 65 70 67 58 55 56 58 60 60 61
61 61 62 62 61 63 62 62 61 66 67 70 69 69 71 73 70 72 75 75 77 79 82 75 74 72 68 72 72 71 72 72 73 76 78 74 76 64 61 55 52 50 53 57 60
56 58 58 56 53 49 49 49 57 63 61 59 62 63 64 61 71 71 74 78 79 78 75 77 77 71 68 67 70 69 72 74 76 79 76 81 79 62 63 60 55 53 51 49 49
52 47 44 42 39 40 41 44 50 47 49 51 49 61 57 48 46 45 67 77 74 76 77 78 81 76 68 62 62 66 69 65 68 71 74 77 76 70 64 63 60 59 55 52 49
36 38 37 37 41 42 44 46 42 37 38 43 46 57 52 53 42 50 47 53 67 69 67 67 73 73 66 66 64 63 58 62 62 66 70 74 75 71 65 66 67 63 59 55 54
40 47 47 36 44 46 48 41 37 32 35 43 41 49 63 41 38 40 55 41 42 58 56 63 65 70 68 68 66 62 66 66 65 64 66 68 73 68 69 69 68 67 65 62 59
42 46 46 49 47 47 42 36 36 34 33 44 47 52 53 74 55 44 48 46 42 45 48 54 59 61 64 62 61 60 59 56 58 63 67 67 71 67 67 69 69 68 68 65 61
38 37 34 44 49 42 36 36 39 34 33 41 46 45 50 53 60 64 47 32 43 40 47 45 57 57 55 54 51 58 63 63 58 58 61 61 66 61 64 63 62 62 63 63 62
40 38 43 49 40 39 35 36 36 31 31 35 42 44 46 47 50 54 56 21 42 35 40 47 46 51 50 45 47 46 51 54 58 60 61 66 64 64 64 66 65 63 62 62 60
45 44 41 44 35 34 37 33 34 31 27 29 36 36 39 40 41 47 57 27 39 42 42 40 40 41 42 43 48 53 54 57 59 60 60 60 61 60 60 61 62 61 62 62 61
49 46 40 43 45 40 36 31 29 28 28 32 24 29 32 22 30 38 37 34 41 47 44 46 47 44 39 38 44 44 40 47 47 43 42 44 48 56 54 61 62 60 61 60 57
54 53 39 41 41 42 28 26 25 23 29 27 19 26 33 32 27 35 38 37 31 30 39 48 41 42 41 43 42 50 43 42 39 39 40 44 38 47 56 58 59 60 60 58 55
Wind_Direction
271 266 264 261 261 259 259 259 259 259 259 258 255 255 255 255 255 255 254 251 251 251 252 251 249 248 248 248 248 247 248 244 239 237 246 251 248 247 242 243 241 237 228 234 241
269 266 264 263 259 259 259 258 258 258 257 256 256 254 253 254 254 253 252 252 250 249 249 249 249 248 247 247 247 247 249 249 243 239 241 243 248 245 242 240 237 239 238 230 235
269 267 265 264 262 259 257 255 255 255 254 256 256 256 253 252 252 252 253 251 250 249 249 247 247 248 247 247 247 247 249 248 242 237 237 242 245 247 245 239 240 238 241 234 239
266 266 265 266 264 261 259 257 255 253 252 253 254 254 254 252 253 252 252 251 250 248 247 247 247 246 246 246 247 247 246 245 242 238 236 239 243 245 246 243 237 240 240 238 235
267 266 264 261 261 261 260 260 258 255 253 253 252 252 253 253 253 253 251 251 250 249 246 245 245 245 245 245 244 245 245 244 241 239 236 237 239 243 243 246 241 239 242 242 240
268 267 264 261 260 257 257 257 257 258 257 255 254 252 250 250 251 251 252 251 251 250 250 246 244 244 244 244 244 244 244 244 242 241 239 238 238 242 243 243 246 242 239 242 243
269 266 265 263 260 259 257 255 255 254 255 256 255 253 252 250 251 252 251 251 252 251 249 250 247 245 243 243 243 244 244 244 243 242 241 240 238 241 243 244 243 245 242 241 245
265 264 264 264 262 261 259 258 257 255 254 255 254 254 252 250 251 252 251 252 251 250 250 249 249 248 245 244 242 243 243 243 243 243 243 242 238 239 241 242 244 242 243 240 240
265 264 264 264 264 263 262 261 261 259 257 256 255 254 251 250 249 251 251 251 251 251 251 249 249 248 247 245 245 242 242 244 243 243 243 243 240 239 243 243 243 243 241 241 239
266 265 265 264 264 263 263 262 262 262 260 259 256 255 254 251 249 248 251 251 251 250 251 249 248 247 247 247 247 248 247 246 246 246 245 245 241 240 241 242 241 241 241 239 239
267 266 266 265 265 265 264 264 265 263 262 261 259 255 254 252 250 247 247 248 249 248 249 250 248 247 251 251 250 249 248 246 246 248 246 244 241 240 240 238 239 241 242 241 241
266 267 266 266 265 264 264 264 265 266 263 260 258 255 255 254 251 249 249 249 249 251 249 249 250 249 248 247 246 245 245 245 244 245 247 243 241 240 241 240 239 241 243 245 243
268 268 268 266 266 265 265 266 266 265 264 258 257 255 254 255 251 248 250 249 249 249 248 248 249 247 246 245 245 245 245 245 246 246 247 246 240 239 239 239 239 240 243 245 246
269 269 269 269 268 268 269 267 265 264 263 261 258 254 252 254 252 253 252 252 250 249 249 247 245 245 245 244 244 244 244 245 246 246 247 247 246 239 239 238 237 238 241 244 247
270 270 271 272 271 271 270 267 264 261 258 261 258 256 254 252 255 252 254 253 253 252 250 250 247 246 245 245 246 247 245 245 246 246 248 246 249 238 239 239 240 240 241 244 246
270 270 269 269 269 268 265 264 262 255 253 254 258 258 256 254 251 249 249 249 250 249 248 246 244 243 243 243 244 244 244 245 244 245 246 245 249 242 243 242 242 243 243 243 245
268 269 270 270 271 269 268 265 259 254 256 258 258 259 257 254 250 246 247 248 250 253 254 251 249 246 241 241 241 241 242 242 243 244 249 248 247 247 246 243 241 241 243 243 243
272 272 273 272 271 268 264 261 259 263 263 263 252 249 250 248 248 243 242 243 244 246 249 251 249 247 247 245 245 247 244 244 247 246 249 246 248 247 248 249 248 246 245 246 249
274 270 266 268 262 257 252 252 269 275 272 265 250 241 233 236 239 248 240 241 243 242 244 248 250 249 245 243 242 244 243 247 245 248 248 249 248 245 244 249 249 249 246 244 244
249 251 255 258 255 250 248 255 265 279 281 263 252 235 226 219 223 251 245 243 241 240 241 243 246 246 245 243 241 240 242 243 242 242 246 249 248 246 245 247 250 249 248 247 246
242 239 238 245 250 247 249 263 272 290 279 251 243 239 228 214 219 231 249 253 250 244 240 237 241 243 240 240 239 239 238 239 242 240 245 249 248 244 243 245 246 250 249 249 248
247 248 246 245 248 251 255 267 274 286 267 251 248 237 232 224 228 233 228 239 244 242 239 232 234 239 247 248 245 244 240 243 247 247 249 250 246 244 243 244 245 247 249 249 249
241 249 253 243 243 251 262 264 269 285 273 250 250 249 236 233 241 237 244 234 227 225 237 229 233 238 243 243 243 242 241 240 241 242 242 244 244 242 243 246 249 250 250 251 251
245 246 248 240 242 247 256 265 271 287 268 254 250 250 242 227 232 238 243 244 223 229 239 227 232 232 236 238 242 244 244 242 241 241 244 246 247 241 242 243 244 245 245 246 247
250 245 245 244 233 247 253 262 267 289 263 247 247 247 244 248 243 239 235 229 233 230 220 220 235 231 233 235 234 241 240 242 248 246 247 248 248 239 242 244 246 246 247 248 247
243 243 246 241 238 244 247 260 271 290 236 238 257 242 233 232 238 241 238 237 219 223 221 231 236 238 230 237 238 229 248 241 241 248 242 243 243 236 238 240 242 244 246 246 246
235 231 236 241 239 237 243 261 276 267 236 235 266 226 220 228 236 225 224 227 223 227 228 233 227 233 243 239 243 240 236 240 242 242 249 253 252 242 239 238 241 244 244 243 241
Height
5721 5721 5722 5723 5725 5727 5729 5730 5731 5734 5736 5738 5741 5744 5746 5748 5750 5753 5756 5760 5762 5765 5768 5770 5773 5776 5778 5780 5783 5786 5787 5794 5801 5804 5806 5804 5805 5807 5811 5814 5815 5815 5817 5819 5820
5708 5710 5709 5711 5712 5713 5717 5719 5719 5721 5723 5726 5728 5732 5735 5737 5739 5742 5746 5749 5752 5755 5757 5761 5764 5766 5768 5771 5773 5776 5779 5788 5795 5798 5798 5796 5797 5800 5805 5809 5811 5811 5813 5816 5817
5694 5694 5696 5699 5699 5699 5701 5704 5707 5709 5710 5712 5715 5718 5722 5725 5729 5733 5735 5737 5739 5743 5747 5750 5753 5756 5759 5762 5764 5767 5772 5780 5785 5789 5790 5789 5789 5793 5797 5803 5806 5807 5808 5813 5814
5682 5683 5682 5682 5685 5689 5688 5689 5692 5695 5697 5699 5702 5704 5709 5713 5716 5720 5722 5726 5729 5732 5735 5738 5742 5745 5749 5752 5755 5758 5762 5769 5774 5778 5780 5780 5782 5784 5789 5797 5800 5802 5804 5807 5810
5667 5668 5671 5670 5671 5673 5676 5677 5677 5680 5682 5685 5688 5690 5696 5701 5706 5706 5709 5713 5715 5719 5722 5726 5729 5733 5737 5741 5744 5747 5752 5757 5762 5767 5770 5772 5774 5775 5781 5787 5792 5796 5798 5801 5804
5652 5653 5654 5657 5659 5658 5661 5664 5665 5665 5667 5671 5674 5677 5683 5691 5693 5693 5697 5700 5704 5705 5710 5713 5716 5719 5724 5729 5733 5738 5742 5747 5752 5756 5760 5763 5767 5767 5775 5778 5783 5788 5792 5794 5798
5637 5638 5639 5640 5641 5644 5645 5647 5648 5651 5652 5655 5657 5662 5669 5681 5680 5682 5685 5687 5690 5692 5695 5699 5704 5707 5712 5717 5721 5726 5730 5734 5740 5745 5748 5751 5757 5761 5769 5770 5773 5778 5783 5787 5790
5622 5621 5623 5625 5625 5626 5628 5631 5631 5633 5635 5638 5641 5646 5655 5665 5665 5668 5672 5673 5675 5678 5681 5684 5688 5693 5699 5703 5707 5712 5716 5721 5729 5733 5737 5740 5750 5755 5757 5760 5765 5770 5774 5778 5781
5604 5605 5606 5607 5609 5611 5612 5612 5612 5614 5617 5620 5625 5629 5642 5648 5654 5653 5656 5658 5658 5663 5667 5670 5673 5678 5685 5690 5694 5699 5704 5709 5715 5721 5723 5726 5739 5745 5745 5752 5757 5760 5765 5768 5771
5586 5587 5588 5588 5590 5591 5593 5593 5592 5593 5598 5601 5607 5614 5627 5632 5634 5637 5637 5640 5644 5646 5652 5656 5658 5663 5671 5675 5681 5687 5693 5699 5704 5712 5711 5715 5726 5729 5735 5739 5744 5748 5753 5757 5760
5567 5568 5569 5570 5571 5572 5574 5574 5575 5572 5575 5584 5588 5597 5603 5608 5613 5617 5618 5621 5627 5632 5636 5639 5641 5653 5669 5667 5670 5673 5676 5684 5691 5693 5694 5701 5706 5711 5719 5726 5731 5736 5741 5747 5751
5547 5548 5549 5551 5552 5553 5553 5556 5553 5552 5551 5560 5564 5576 5585 5586 5591 5597 5601 5607 5612 5619 5621 5621 5629 5654 5646 5649 5653 5656 5662 5670 5674 5674 5674 5683 5690 5697 5704 5714 5721 5725 5729 5735 5741
5528 5529 5529 5531 5532 5536 5535 5538 5533 5530 5524 5536 5548 5558 5569 5560 5568 5579 5585 5588 5595 5597 5604 5606 5625 5625 5627 5633 5638 5646 5650 5657 5657 5658 5658 5665 5672 5682 5692 5700 5709 5715 5719 5723 5729
5509 5509 5509 5509 5515 5516 5517 5516 5513 5514 5497 5514 5526 5539 5544 5544 5541 5569 5567 5573 5575 5581 5582 5581 5605 5605 5609 5618 5624 5627 5640 5637 5640 5642 5642 5649 5653 5669 5677 5685 5695 5702 5706 5712 5716
5489 5489 5489 5488 5494 5496 5496 5494 5493 5496 5478 5494 5502 5515 5530 5522 5546 5548 5556 5548 5555 5561 5561 5578 5589 5588 5590 5611 5608 5619 5622 5623 5624 5624 5624 5635 5637 5657 5664 5674 5685 5691 5696 5700 5704
5469 5468 5467 5469 5475 5474 5474 5472 5470 5470 5458 5466 5480 5497 5503 5511 5521 5528 5526 5529 5534 5534 5538 5559 5562 5568 5585 5585 5593 5598 5601 5604 5604 5604 5601 5634 5624 5642 5655 5668 5673 5679 5682 5686 5690
5449 5449 5447 5450 5455 5451 5450 5451 5449 5443 5455 5457 5464 5476 5481 5484 5499 5505 5508 5512 5515 5520 5522 5545 5548 5555 5565 5566 5571 5578 5584 5582 5585 5586 5599 5610 5605 5634 5644 5654 5661 5665 5667 5671 5676
5431 5430 5430 5435 5432 5430 5430 5430 5423 5435 5443 5450 5451 5453 5457 5465 5472 5482 5487 5486 5494 5503 5510 5515 5522 5541 5553 5558 5562 5563 5564 5569 5571 5573 5590 5581 5590 5627 5630 5637 5647 5653 5658 5662 5665
5413 5413 5414 5418 5416 5416 5415 5411 5415 5423 5426 5430 5435 5435 5443 5452 5457 5460 5464 5470 5480 5487 5494 5499 5504 5523 5534 5537 5542 5546 5543 5575 5551 5559 5564 5564 5587 5607 5620 5625 5631 5636 5642 5647 5653
5400 5400 5405 5405 5404 5403 5400 5402 5409 5414 5413 5414 5414 5420 5430 5439 5441 5447 5452 5457 5462 5469 5480 5482 5491 5501 5516 5516 5519 5527 5550 5534 5537 5543 5547 5552 5572 5592 5609 5613 5612 5620 5625 5631 5637
5386 5386 5395 5395 5392 5390 5389 5399 5401 5403 5402 5402 5404 5406 5415 5422 5426 5431 5438 5445 5451 5457 5466 5472 5476 5481 5488 5489 5507 5519 5518 5517 5523 5529 5535 5544 5552 5582 5589 5593 5598 5601 5607 5614 5620
5372 5373 5380 5382 5381 5380 5387 5392 5393 5392 5391 5391 5392 5395 5400 5408 5408 5413 5421 5429 5441 5448 5450 5464 5466 5468 5473 5485 5492 5496 5502 5506 5508 5519 5525 5530 5532 5566 5574 5578 5582 5586 5591 5596 5603
5360 5362 5364 5368 5367 5373 5381 5383 5381 5383 5380 5381 5382 5387 5394 5396 5402 5404 5410 5418 5427 5433 5439 5449 5449 5457 5460 5468 5472 5475 5487 5493 5499 5504 5503 5511 5526 5552 5556 5561 5567 5573 5577 5581 5586
5350 5352 5352 5354 5363 5368 5371 5374 5374 5374 5371 5372 5374 5378 5381 5385 5392 5396 5404 5408 5415 5423 5432 5435 5439 5443 5448 5460 5465 5466 5473 5479 5485 5486 5497 5497 5520 5536 5542 5547 5551 5555 5558 5563 5571
5336 5337 5342 5344 5355 5359 5362 5367 5366 5365 5364 5364 5365 5367 5374 5379 5385 5389 5397 5402 5408 5415 5421 5425 5428 5435 5441 5447 5452 5457 5462 5468 5468 5477 5480 5495 5499 5523 5529 5535 5536 5538 5545 5551 5557
5323 5327 5333 5338 5345 5350 5353 5355 5358 5359 5359 5359 5360 5363 5368 5373 5380 5384 5390 5396 5400 5405 5411 5417 5422 5427 5432 5437 5442 5447 5452 5457 5460 5468 5472 5479 5483 5507 5508 5513 5519 5524 5528 5536 5543
5305 5316 5323 5330 5335 5340 5346 5350 5352 5351 5352 5354 5355 5356 5361 5368 5372 5377 5383 5388 5392 5399 5403 5410 5413 5419 5423 5429 5431 5432 5442 5447 5452 5459 5465 5467 5480 5492 5494 5499 5507 5513 5514 5519 5527